Wind_Speed
13 13 13 13 12 12 12 12 11 11 13 14 15 16 15 13 12 13 14 15 16 16 16 15 15 16 18 19 21 21 21 20 20 21 21 22 22 22 22 24 25 25 27 29 30 31 33 34 36 37 34 35 37 36 35 37 38 37 36 36 36 35 32 33 38 40 36 33 32 30 27 27 26 25 26 26 25 23 21 19 16 16 17 18 18
13 13 13 12 12 12 12 12 10 11 12 13 14 15 15 14 13 14 14 15 15 15 15 15 15 16 18 20 21 21 20 20 20 20 21 22 21 21 22 24 26 27 28 30 30 31 34 35 36 36 34 35 37 35 34 36 37 36 36 36 35 34 33 33 35 36 35 32 30 29 28 27 28 28 27 27 26 25 25 23 20 19 19 19 19
12 12 12 11 11 12 12 11 10 11 12 12 13 14 15 15 15 15 15 16 16 15 14 15 16 17 18 20 21 20 19 19 19 20 21 22 22 22 23 25 25 26 27 29 31 32 33 35 37 36 34 35 36 37 37 36 37 37 36 36 34 33 34 34 33 33 33 32 29 28 28 27 28 28 28 29 28 27 28 28 24 22 21 22 23
12 12 12 11 11 11 12 11 10 10 11 12 13 14 15 16 16 16 17 17 16 16 15 15 16 17 18 20 21 19 18 19 19 19 20 21 22 24 27 28 26 26 26 27 30 31 31 34 37 36 35 36 36 37 38 38 38 38 38 36 35 34 34 34 34 33 31 31 30 28 28 28 27 26 27 29 30 28 29 30 28 25 23 23 24
12 12 12 12 11 11 11 10 10 10 11 12 13 14 15 16 17 18 17 17 16 16 15 15 16 17 18 19 19 17 17 17 18 20 21 21 22 25 28 29 28 27 29 28 29 31 31 33 34 34 35 38 36 36 39 40 40 40 38 36 36 35 33 34 34 34 33 32 31 30 29 28 27 26 26 27 29 30 29 30 29 26 25 25 25
12 12 12 12 11 11 10 10 10 10 10 12 13 14 16 17 18 19 18 17 16 16 15 15 15 16 17 18 17 16 18 19 19 21 22 22 22 26 29 30 29 30 33 33 31 29 29 31 32 32 34 36 36 37 38 38 39 40 39 36 35 34 34 34 34 34 34 33 32 31 30 29 27 28 29 28 30 30 28 28 28 26 25 26 26
12 12 12 12 11 10 9 10 11 11 11 12 13 15 16 17 18 19 19 17 16 16 16 16 16 16 17 18 18 18 19 21 21 23 23 22 22 25 29 31 31 32 35 36 33 28 27 28 30 33 33 33 35 36 36 35 37 40 40 37 35 34 34 35 34 34 34 34 33 31 30 30 29 30 31 30 29 28 27 27 27 26 25 26 26
12 12 11 11 11 10 10 11 12 12 13 14 15 15 16 17 18 19 19 18 17 16 16 17 17 17 18 20 20 20 20 21 23 24 24 23 22 24 28 30 32 35 37 35 31 27 26 26 28 32 33 32 33 34 34 34 35 37 39 38 36 36 36 36 36 35 34 34 34 31 30 31 31 30 29 28 27 27 26 25 25 25 25 25 25
12 11 11 11 10 10 11 12 12 13 14 15 15 16 16 17 18 19 20 19 18 17 17 17 18 19 19 20 21 22 21 20 23 26 25 23 22 24 28 30 33 36 38 35 30 27 27 27 27 30 32 32 33 33 34 34 34 35 38 38 39 39 38 37 37 36 35 34 33 31 32 34 32 29 28 28 30 28 25 25 26 25 25 24 24
11 11 11 10 9 10 11 11 12 13 15 16 16 16 17 17 18 19 20 20 19 19 18 18 18 19 20 21 21 21 21 21 23 25 25 22 21 23 27 30 32 36 37 34 31 29 29 28 27 28 30 31 33 34 35 35 35 36 36 37 40 41 39 39 40 38 36 36 35 32 34 34 31 30 29 30 31 28 25 26 27 25 24 24 25
10 11 11 10 9 10 10 11 12 14 15 16 16 17 17 18 19 19 20 20 21 20 19 18 18 18 19 19 18 19 21 21 23 24 24 22 21 23 26 29 32 35 36 34 32 31 30 28 25 24 25 27 30 33 35 35 36 37 37 38 40 41 40 39 39 38 37 37 35 34 35 33 30 31 30 27 27 28 28 27 25 24 23 24 24
10 11 11 10 10 10 11 11 13 14 15 16 16 17 19 19 18 18 19 20 21 20 19 18 17 17 17 17 18 18 20 21 22 22 22 21 21 22 25 27 30 34 35 34 32 29 25 21 18 18 20 22 24 27 31 34 35 37 39 41 42 42 43 42 39 37 37 37 36 34 34 33 31 32 30 25 25 29 30 27 25 23 22 23 23
10 10 11 11 11 11 11 12 13 14 15 16 17 18 20 19 17 17 18 20 21 20 18 17 17 17 17 18 19 19 19 19 19 20 20 20 20 21 24 26 28 32 35 34 33 30 26 21 15 14 17 20 22 24 27 29 32 34 35 38 42 44 45 45 43 41 39 39 38 36 34 33 32 33 31 28 29 31 29 27 26 24 23 24 24
10 10 11 12 12 13 13 13 14 15 15 16 17 19 20 18 17 18 19 19 19 19 18 17 17 18 18 19 20 21 19 17 16 17 18 19 19 20 22 25 26 30 34 34 34 33 31 28 22 17 15 16 19 23 27 30 31 33 34 34 37 41 44 45 46 45 43 41 40 39 37 35 33 33 32 31 32 31 28 26 26 25 25 25 23
10 11 12 12 13 14 14 14 14 14 14 15 17 19 18 17 17 18 18 17 17 18 18 17 18 18 19 19 20 21 19 15 14 16 17 18 18 18 20 23 25 28 31 32 33 33 32 29 26 23 21 21 21 20 24 31 33 35 36 36 37 39 42 45 46 46 46 44 42 41 40 38 36 33 31 30 30 29 28 26 25 24 23 21 20
11 12 13 13 13 13 13 14 14 14 14 15 16 17 17 17 16 16 16 16 16 17 18 18 18 19 19 19 20 22 20 15 14 14 15 17 18 19 20 22 23 25 27 28 30 31 32 32 29 27 26 25 26 25 21 24 32 34 35 37 38 40 42 44 44 45 46 46 46 45 43 40 37 35 31 27 26 25 24 24 24 23 21 19 20
12 13 14 14 14 13 13 14 14 13 14 14 15 16 17 17 16 16 16 16 17 18 19 19 19 19 20 19 20 22 20 15 14 14 15 17 19 20 21 22 22 22 24 26 28 30 33 33 31 28 27 26 26 27 25 20 23 30 34 38 41 42 43 43 43 42 43 45 47 47 45 42 40 38 34 30 27 25 24 24 25 24 22 22 23
12 13 14 14 14 13 13 14 13 13 13 13 14 15 16 17 17 16 17 18 19 19 19 19 18 18 19 19 19 21 21 16 14 15 16 18 20 21 22 23 22 22 22 24 26 28 31 32 31 28 27 26 25 25 26 22 16 20 29 35 40 43 43 42 42 42 41 43 45 46 46 45 43 41 37 33 29 27 28 27 25 25 26 26 25
12 12 13 14 14 14 14 13 13 12 12 13 13 15 16 17 17 17 17 18 18 18 18 18 18 17 18 18 18 20 22 17 13 14 17 18 20 21 21 22 23 23 22 23 24 26 28 30 29 29 28 27 25 24 25 24 19 16 18 24 33 39 41 40 40 42 42 42 43 45 46 45 44 42 38 34 31 29 29 29 26 26 27 27 26
10 12 14 16 16 15 15 14 13 12 13 13 13 14 14 16 17 16 16 16 17 17 18 19 19 18 17 18 18 19 21 18 13 13 15 18 20 20 20 20 22 22 22 22 22 24 27 28 27 28 31 30 27 25 24 23 22 19 15 14 21 29 34 36 38 41 44 41 39 41 44 44 43 42 39 36 32 30 30 30 28 28 27 25 24
11 14 16 17 16 16 15 15 14 13 13 13 13 12 13 14 15 15 15 16 16 18 19 19 20 19 18 18 17 17 19 18 15 14 15 16 18 20 19 19 20 21 22 21 20 22 24 25 25 27 30 31 29 28 25 22 23 24 20 13 13 19 24 29 33 35 37 36 34 36 39 42 43 42 40 37 35 32 32 32 30 28 28 26 24
13 15 17 17 16 16 16 16 15 15 14 13 13 12 11 12 13 14 15 16 17 18 20 19 19 19 18 17 17 16 16 17 16 15 15 15 17 18 19 18 18 19 20 20 20 20 21 22 23 25 28 29 30 30 28 25 24 27 26 20 13 11 12 18 26 30 28 29 30 32 36 40 42 41 39 38 36 34 33 32 31 30 30 29 27
15 17 19 18 17 16 16 16 17 17 15 13 12 12 11 11 12 13 14 15 17 18 18 18 18 19 18 17 17 15 15 15 15 14 14 15 16 17 18 17 16 17 18 19 19 19 19 20 21 23 25 28 28 29 30 28 25 24 25 24 18 10 7 11 19 26 28 29 29 30 35 39 40 39 39 38 36 34 32 32 32 31 31 31 28
18 19 20 19 18 18 17 17 17 18 16 12 11 12 12 11 11 11 12 14 15 16 17 17 18 18 18 18 17 16 15 15 15 14 14 15 16 17 17 17 16 15 16 17 17 17 18 19 21 21 23 25 27 28 30 30 28 23 21 22 23 17 7 7 11 17 25 33 33 32 34 38 38 39 39 37 34 32 31 31 32 31 31 30 28
20 21 20 19 19 18 18 17 17 18 17 13 12 13 13 12 11 11 12 13 15 16 17 17 18 18 18 18 17 17 16 15 15 14 14 15 16 17 17 17 16 15 15 15 16 16 17 18 19 19 21 23 24 25 28 30 29 25 20 18 21 23 16 4 6 11 17 26 32 34 35 36 37 37 37 35 32 29 28 31 32 31 30 30 29
22 22 21 19 17 16 17 17 17 17 16 14 13 14 14 13 12 11 12 14 15 16 17 18 18 18 18 17 17 17 17 16 15 14 14 15 16 18 18 17 17 16 14 14 15 16 17 18 19 19 20 22 22 23 25 26 26 24 22 20 19 22 23 18 9 1 9 15 22 29 32 34 35 35 33 32 30 28 28 30 31 30 30 30 29
21 21 20 19 16 15 16 17 17 17 16 14 13 14 14 14 12 12 13 14 15 16 17 18 19 18 18 17 17 16 16 16 15 14 14 14 16 18 19 18 17 16 15 13 13 14 16 18 17 17 19 20 20 19 20 22 23 24 24 23 21 19 20 23 23 18 10 6 10 17 22 27 30 30 28 27 27 27 28 28 28 30 31 28 26
20 20 19 17 16 15 15 16 16 17 16 13 12 12 13 13 13 13 14 15 15 15 16 17 18 18 17 17 16 16 15 16 16 15 14 14 15 16 18 19 18 17 16 14 13 13 15 15 14 14 17 18 19 18 17 18 20 22 24 25 24 22 19 18 21 23 21 17 16 14 14 16 20 22 23 23 23 23 24 24 25 27 26 22 21
19 19 17 16 16 15 14 13 13 14 14 12 10 10 13 15 15 15 16 16 15 15 16 17 17 16 15 15 16 16 16 16 16 16 16 15 14 14 17 19 19 17 16 15 14 13 14 14 12 12 15 19 19 18 16 17 18 19 22 24 25 25 25 23 22 20 19 18 18 19 18 17 16 15 16 18 18 17 18 19 20 20 19 17 17
19 18 17 16 16 14 12 10 11 13 13 12 10 11 15 16 15 15 16 15 14 14 15 16 16 16 15 14 15 16 16 17 17 17 16 15 13 12 14 18 19 18 16 15 14 13 14 14 12 11 14 18 20 19 17 16 16 17 19 20 22 23 25 26 26 24 20 18 17 15 15 16 16 16 17 17 16 15 14 14 15 14 14 15 16
18 18 18 17 15 15 13 11 12 13 14 14 13 13 15 16 14 14 15 15 14 14 15 15 15 15 15 15 15 15 16 17 16 16 16 15 14 12 12 15 17 17 16 14 12 11 13 13 12 11 12 15 18 19 17 15 14 16 18 17 17 19 20 21 23 24 24 23 21 17 14 11 10 10 13 15 15 15 16 15 14 13 12 11 11
18 18 18 17 17 16 15 14 15 15 14 14 14 14 15 15 13 12 13 14 14 13 13 13 14 14 15 16 15 15 15 15 16 16 15 14 13 12 12 13 14 15 15 13 11 9 11 12 12 11 11 12 14 16 16 14 13 14 16 14 13 15 17 18 18 19 20 21 21 21 18 15 12 10 9 10 11 13 14 15 15 16 16 15 13
18 18 19 20 20 19 16 15 16 16 15 15 13 12 12 12 11 12 12 12 13 13 12 12 12 13 14 15 15 14 13 13 14 14 13 13 13 12 11 11 12 12 12 12 11 10 10 11 12 11 10 11 12 13 14 14 13 13 14 14 12 12 13 14 14 15 16 17 18 19 19 18 18 17 15 13 13 13 14 15 15 15 14 14 13
17 19 20 21 22 20 17 15 15 16 17 16 14 13 12 11 12 13 11 9 9 10 10 11 11 12 12 13 13 13 13 13 13 13 12 12 12 12 11 10 10 10 10 11 11 11 10 10 11 12 11 10 10 10 12 13 12 11 12 12 12 11 10 10 10 11 12 12 14 15 15 15 16 17 17 17 16 14 13 13 12 12 11 11 11
14 16 18 19 21 20 17 14 14 16 17 15 13 14 14 12 12 13 10 7 6 6 8 10 10 9 10 10 11 12 12 12 12 11 11 11 12 12 10 9 8 7 8 9 9 9 10 9 10 10 11 11 10 9 10 11 10 9 9 9 10 10 10 9 9 9 9 9 10 10 12 12 12 12 13 14 15 14 13 12 10 9 9 9 9
13 14 16 17 19 18 16 13 12 13 15 14 13 14 13 11 10 11 8 6 5 4 5 6 7 7 8 9 10 11 12 12 12 11 11 12 12 10 8 6 5 6 7 8 9 9 9 9 9 9 9 10 10 9 9 9 9 9 8 7 7 7 8 8 8 7 7 7 6 5 6 7 7 7 8 8 9 10 10 10 9 8 8 6 5
12 12 13 14 14 13 12 11 10 9 9 10 12 13 11 10 9 8 6 4 3 1 2 3 5 6 7 7 9 10 10 10 10 10 10 9 8 7 5 5 6 7 7 8 10 10 10 10 10 10 9 9 9 8 8 9 9 9 8 7 7 6 6 6 6 6 6 6 5 3 3 2 3 4 3 3 4 6 7 6 6 6 5 4 3
9 10 11 11 9 7 7 8 9 8 8 10 11 11 10 9 8 6 4 4 3 1 3 3 4 5 5 6 6 7 7 8 8 7 6 5 5 5 6 7 7 8 9 10 10 10 10 11 11 11 11 10 10 9 9 9 9 9 8 8 7 7 6 5 5 5 6 6 5 4 3 3 3 3 3 2 1 3 4 5 5 3 2 3 3
9 9 9 8 6 4 5 7 9 10 10 10 10 10 9 8 6 5 4 3 1 3 5 5 5 5 4 4 3 4 5 6 6 5 4 5 5 6 7 8 8 9 10 10 10 10 11 11 10 11 11 11 11 11 11 10 10 10 9 9 8 6 5 5 5 6 6 6 6 5 4 3 4 5 5 3 2 1 2 4 5 4 3 3 3
9 8 7 5 3 3 6 8 10 11 11 11 10 8 6 5 5 4 3 3 5 7 8 8 7 5 4 3 3 4 5 5 5 5 6 7 7 8 8 8 8 8 9 9 10 10 11 10 10 10 10 11 11 11 12 12 12 12 11 11 10 9 8 7 7 6 7 7 7 7 6 5 4 3 4 3 3 1 1 3 4 3 3 4 5
6 5 4 3 3 5 7 8 9 9 9 8 6 4 2 3 3 2 3 5 7 7 8 8 7 5 5 5 5 6 6 5 4 5 7 8 7 8 9 9 7 7 8 9 9 10 10 10 10 11 11 11 12 12 12 12 12 12 12 12 12 12 11 10 9 8 8 8 8 8 8 7 5 3 2 2 1 1 2 4 4 4 5 5 6
3 3 2 2 3 4 4 5 5 5 5 4 3 2 2 1 1 1 2 4 5 5 5 6 6 5 5 5 5 6 4 3 4 4 5 5 5 7 8 7 6 7 9 9 9 8 8 9 10 11 11 11 12 13 13 13 12 12 12 12 11 11 12 12 11 11 10 9 9 9 9 9 8 6 4 1 0 2 4 4 4 5 5 6 7
1 0 1 1 1 2 2 3 3 3 3 3 2 1 0 2 2 1 1 2 3 2 3 3 3 3 3 3 3 4 3 3 3 4 4 2 3 5 5 2 3 6 7 8 7 6 7 8 10 10 11 11 11 12 13 13 13 13 12 12 11 11 11 11 11 11 11 11 11 11 10 10 10 9 7 5 4 3 5 6 6 7 7 7 7
4 4 4 5 6 5 5 4 3 2 2 2 2 3 3 4 4 3 1 1 0 0 1 2 2 2 2 1 2 2 2 2 2 3 2 2 3 3 2 2 4 6 6 6 6 6 8 9 10 11 12 12 12 12 13 13 13 13 12 11 11 11 11 11 10 11 11 11 12 12 12 11 11 10 9 8 7 6 6 6 6 7 7 8 8
5 5 6 6 6 5 4 3 1 1 2 3 5 5 5 4 3 2 1 1 1 0 1 1 2 2 2 3 3 3 3 2 1 1 2 2 2 1 1 3 6 7 6 6 7 7 8 9 10 11 12 12 12 12 12 12 12 13 12 12 12 12 12 12 12 11 11 10 10 10 11 11 11 10 10 10 9 9 8 8 7 6 7 7 6
5 5 5 5 4 2 1 0 1 3 4 5 6 6 4 2 1 2 2 2 1 1 3 3 3 3 4 4 4 3 3 2 1 1 2 2 2 2 3 6 7 7 8 9 9 8 8 9 9 10 11 11 12 12 12 11 11 11 12 12 12 12 13 12 12 12 11 10 10 9 9 9 8 8 8 8 8 8 8 8 8 8 7 5 4
3 2 2 2 1 0 1 2 3 4 4 4 4 3 1 2 3 3 3 4 4 4 5 5 4 4 4 4 4 3 2 1 1 2 2 3 4 5 6 7 8 9 10 10 10 10 9 9 9 9 10 10 11 11 11 11 11 11 11 11 11 11 12 12 12 12 12 12 12 11 10 9 8 8 7 7 7 6 6 6 6 7 7 6 5
1 2 2 2 2 3 3 4 4 4 3 2 1 1 2 3 4 4 4 5 6 6 6 6 5 4 3 3 2 2 1 1 1 2 3 4 5 7 7 8 9 10 10 10 11 10 10 9 9 9 9 9 9 9 9 9 10 10 10 10 10 10 10 10 11 12 12 12 12 13 12 11 11 10 10 10 10 9 9 8 7 7 7 6 7
2 3 3 4 4 4 4 4 3 3 1 1 2 3 3 4 5 6 6 6 6 7 7 6 5 4 3 2 2 1 1 1 2 3 4 5 6 8 8 8 8 8 9 9 9 9 9 9 9 8 8 8 8 7 7 7 8 8 8 9 9 9 10 10 10 10 11 11 11 11 12 12 12 11 11 11 11 11 12 12 12 11 10 8 7
4 4 4 4 3 3 2 2 1 1 2 3 4 5 6 7 7 7 7 7 7 7 7 6 5 5 4 2 2 1 1 1 2 3 3 4 5 5 6 5 5 5 6 6 6 7 7 8 8 8 9 9 9 9 9 8 8 8 8 8 9 10 10 10 10 10 10 10 10 10 10 11 11 11 11 11 11 10 10 11 11 11 11 11 10
4 4 3 2 2 1 1 2 3 4 5 6 7 7 8 8 9 8 7 7 7 6 6 5 4 4 3 3 2 2 1 1 2 2 2 1 1 1 1 2 2 2 3 4 5 6 7 8 9 10 10 10 11 11 11 10 10 10 10 10 10 10 10 10 11 11 11 10 10 10 10 10 10 10 11 11 11 11 11 11 10 10 10 10 10
Wind_Direction
300 304 308 311 310 307 310 313 314 318 324 331 337 339 339 335 326 322 321 319 319 317 315 315 314 315 316 315 314 313 312 312 312 313 313 312 310 306 302 299 296 291 285 279 274 270 268 265 263 262 260 258 259 256 251 252 254 251 250 251 250 251 249 245 249 254 255 252 251 254 256 257 256 250 244 241 239 240 242 238 239 244 242 241 241
297 301 305 307 306 304 306 309 310 316 324 333 339 341 342 340 334 331 328 324 322 317 311 310 311 314 317 318 316 314 312 313 316 320 320 319 317 311 307 304 300 296 290 284 278 273 271 268 265 262 258 253 252 250 246 249 251 248 246 248 249 247 244 243 246 251 253 252 250 251 252 254 255 249 244 243 243 244 246 246 249 252 247 243 241
296 299 302 303 301 298 300 302 305 314 323 330 337 339 338 337 334 332 330 328 325 318 309 305 307 311 318 320 317 314 314 316 320 325 326 324 321 318 317 313 307 301 295 288 283 278 273 270 268 265 259 252 248 246 244 246 247 245 244 246 246 245 242 242 243 246 249 251 250 249 249 252 255 251 246 245 246 248 249 249 253 256 252 246 243
295 296 299 299 296 293 294 295 300 311 320 326 331 331 329 327 328 326 325 325 326 323 315 306 303 307 314 319 317 316 317 319 323 327 327 325 322 321 323 320 315 310 303 295 288 283 277 272 270 266 260 253 247 245 246 245 244 243 242 242 243 243 242 242 243 245 247 249 249 248 248 249 252 254 251 247 246 247 247 249 252 255 255 250 246
294 295 298 296 291 288 286 288 297 307 315 320 323 323 322 322 322 321 320 320 322 323 321 315 310 306 309 317 321 324 325 324 327 329 327 325 321 321 323 322 320 318 314 307 297 288 282 277 271 266 262 257 249 245 248 247 244 242 241 241 241 241 241 241 242 244 245 247 249 249 247 248 250 252 251 250 249 248 248 249 250 251 255 253 248
294 295 296 293 287 284 282 285 293 301 308 312 316 318 319 319 320 319 317 317 317 319 321 321 318 312 311 315 319 325 330 330 329 328 326 323 320 320 323 325 324 324 322 317 308 294 282 277 272 267 263 259 251 247 249 248 244 242 240 239 239 240 240 241 240 241 244 246 248 248 246 247 249 250 250 252 251 250 248 247 248 249 251 251 248
294 295 294 290 287 283 280 282 289 296 302 307 310 312 314 315 318 319 317 316 315 316 318 319 320 318 317 316 315 316 324 331 330 327 326 322 318 319 323 325 326 326 324 320 315 302 285 273 268 264 261 257 253 251 250 247 244 242 240 237 237 238 239 240 239 238 241 244 246 247 245 245 247 250 253 254 251 248 246 244 245 246 248 249 247
292 294 291 290 289 284 280 281 286 294 300 304 307 308 308 313 317 319 320 318 315 313 314 316 317 318 317 316 313 310 316 328 330 328 326 323 320 321 325 326 326 326 326 322 316 308 295 280 267 262 259 255 254 253 250 248 245 244 241 237 237 238 238 238 239 239 240 243 245 245 241 241 245 249 252 250 245 242 240 238 239 242 246 250 251
291 291 290 293 291 284 281 283 287 294 300 305 307 305 306 312 317 320 322 321 318 313 311 312 315 316 316 316 313 310 312 322 327 327 328 326 323 325 330 330 328 330 331 326 316 306 299 290 275 265 258 254 253 252 250 248 245 244 243 240 237 237 236 237 239 240 240 241 243 242 238 238 241 245 245 242 239 238 236 235 236 238 242 250 253
289 290 292 295 288 279 279 284 289 297 304 308 308 306 307 312 316 319 321 322 320 315 309 308 312 315 317 318 316 314 313 316 322 326 328 328 325 328 333 333 334 337 337 331 322 313 306 297 283 270 260 254 253 252 250 248 245 244 245 242 238 238 237 238 240 241 240 240 240 239 238 237 237 239 240 238 238 239 239 238 239 239 242 248 253
288 289 292 291 282 278 280 284 291 300 306 309 308 307 309 312 315 317 318 319 319 317 311 308 311 314 316 319 321 320 317 316 320 324 328 328 326 330 334 334 338 344 344 339 333 325 316 306 292 277 267 259 255 254 252 250 247 246 245 243 241 240 239 240 241 241 240 240 239 237 235 234 233 236 238 238 238 240 243 244 241 239 242 246 251
285 287 288 286 282 281 283 287 293 300 305 307 306 309 312 314 314 314 315 317 317 317 313 310 312 315 317 320 324 323 319 318 320 322 325 327 327 332 337 337 341 350 351 347 344 339 330 319 300 283 277 272 267 263 259 254 250 248 245 243 242 241 241 241 240 239 239 239 237 235 233 232 231 234 237 234 235 241 247 248 241 236 240 243 245
280 285 285 284 283 284 285 288 295 300 305 307 308 314 317 316 315 314 314 315 315 316 315 313 313 314 316 322 326 324 320 318 318 318 322 327 328 333 340 339 343 353 356 353 353 354 355 355 339 307 292 284 276 271 266 259 253 251 248 244 241 241 241 241 239 238 238 238 237 235 233 230 229 233 236 235 238 243 246 245 238 233 237 242 243
277 283 284 283 283 284 284 287 294 301 306 309 313 319 321 318 315 314 314 314 314 316 316 314 313 314 317 323 327 326 322 316 313 314 322 329 331 334 339 340 345 354 357 358 360 360 360 4 2 348 333 316 296 276 263 258 254 251 249 246 242 240 240 240 239 238 238 238 239 238 236 232 230 233 237 240 243 245 244 242 239 238 241 246 248
276 282 283 284 284 283 282 284 290 298 306 310 316 323 325 322 318 316 315 315 316 316 317 315 313 314 318 323 326 326 324 314 307 313 325 335 338 337 339 342 347 353 355 358 2 2 360 1 0 356 355 352 341 313 276 259 253 249 247 247 246 243 242 241 240 239 239 238 237 237 237 235 234 235 238 241 244 246 247 247 248 249 249 249 247
276 282 283 285 286 285 281 282 286 294 303 309 317 326 331 329 324 319 318 319 317 316 316 315 314 314 318 322 324 325 325 314 304 314 331 340 343 343 343 345 349 352 354 356 358 360 2 3 360 357 357 355 352 343 316 274 255 250 248 248 249 248 246 245 243 242 240 239 237 236 236 237 237 236 235 236 237 241 244 245 243 243 242 239 237
275 280 283 285 288 287 282 281 285 292 299 306 318 327 330 330 326 321 320 322 321 319 317 315 314 315 317 320 321 323 325 317 306 315 330 337 341 345 346 347 349 349 351 354 354 356 2 4 1 358 357 357 354 350 341 312 270 254 250 250 249 248 248 248 247 245 242 239 238 235 234 237 240 239 237 234 233 234 236 235 232 231 231 229 229
273 281 286 286 282 278 275 277 283 290 296 304 316 323 325 326 323 320 321 323 324 323 320 318 317 318 318 319 320 321 324 319 307 313 325 330 334 340 342 345 349 347 347 351 353 354 359 3 4 1 358 359 357 353 349 341 309 270 258 253 248 246 246 245 246 246 243 239 237 235 232 234 239 242 241 237 235 233 232 231 229 228 228 227 228
279 284 285 280 271 265 265 268 276 286 293 302 311 316 319 320 319 318 319 321 323 324 323 321 320 321 322 321 320 320 324 323 312 312 322 326 328 332 335 339 345 347 346 347 349 351 354 1 7 8 6 3 1 359 357 353 342 314 282 259 247 243 243 241 241 241 241 238 235 232 230 230 233 237 238 237 236 232 229 227 226 226 226 226 226
282 280 278 276 272 267 263 262 269 281 291 299 307 311 313 314 315 315 316 317 319 320 321 320 319 320 324 325 323 321 324 326 319 311 317 323 325 327 330 333 337 343 346 345 346 348 352 360 7 11 12 12 9 5 2 358 354 347 324 280 253 246 244 242 239 238 239 238 233 228 226 225 228 231 232 233 233 229 225 224 223 223 223 222 224
276 275 277 281 281 275 268 263 267 276 285 294 302 305 306 308 310 310 310 311 312 315 319 320 320 321 324 327 326 322 323 326 322 313 316 324 326 327 330 330 330 337 345 347 347 347 348 356 4 6 8 13 16 13 6 2 4 5 356 327 281 258 250 244 238 236 236 233 227 225 223 221 223 226 228 229 229 223 222 223 221 220 222 222 221
270 273 280 286 286 280 273 267 267 273 280 288 296 298 299 305 308 305 304 306 308 313 317 319 322 324 326 329 330 326 323 325 325 320 319 325 329 328 331 332 329 333 341 347 350 349 347 352 0 2 2 7 15 17 14 11 13 13 7 356 327 284 259 243 233 229 226 222 219 219 219 219 219 220 222 225 224 220 221 225 222 219 222 224 224
266 272 281 286 284 281 276 269 267 270 274 281 290 290 292 300 304 302 303 306 311 316 317 318 323 327 327 329 332 331 325 324 327 326 322 324 329 329 330 333 333 333 338 343 347 347 346 349 355 358 359 3 10 16 17 17 18 15 10 6 359 335 280 242 230 223 220 218 215 212 212 213 213 214 217 221 220 218 220 222 220 219 221 224 225
261 270 278 282 281 281 278 273 270 266 264 272 285 285 286 293 297 298 304 310 314 318 319 319 323 327 328 328 330 333 330 324 325 327 326 326 329 329 328 332 336 336 335 337 341 343 343 346 350 353 357 1 6 13 17 18 19 17 11 10 13 8 333 251 232 225 219 216 213 211 210 209 209 211 215 217 217 218 218 217 217 219 222 222 221
258 266 274 279 283 284 280 276 272 261 255 264 274 274 278 285 288 293 304 310 314 318 320 320 322 327 330 328 327 331 331 325 322 324 327 329 331 333 332 331 334 339 338 335 336 339 340 344 348 350 353 358 4 10 15 17 21 20 15 15 23 25 22 360 229 226 218 212 211 212 209 206 208 212 214 214 215 215 213 215 218 218 216 217 218
255 264 271 277 285 284 278 277 272 259 252 259 264 265 272 278 281 289 299 307 313 316 319 320 323 328 331 330 326 328 329 326 320 318 322 327 331 336 338 335 334 338 340 338 337 339 341 346 351 352 353 357 3 9 13 17 22 25 24 25 31 36 39 44 52 183 210 204 206 208 206 201 204 209 210 210 214 216 215 219 220 213 208 212 216
255 265 271 275 282 281 278 279 272 258 249 251 258 266 271 273 275 286 295 302 308 313 316 318 322 326 331 333 330 329 328 326 321 316 318 324 331 336 339 340 338 337 340 344 343 342 346 351 354 357 357 359 4 9 12 16 24 31 34 34 36 39 44 48 52 57 71 123 166 187 196 197 197 201 204 206 210 213 215 217 214 206 205 210 211
259 268 268 270 275 278 281 281 269 253 244 249 262 269 269 267 272 283 292 298 304 309 313 315 318 323 329 333 333 332 331 328 325 321 319 322 330 336 339 342 343 340 342 350 352 350 353 356 356 0 6 8 10 13 14 18 26 34 39 42 43 42 42 46 54 60 64 70 86 111 143 166 177 184 193 199 200 199 199 201 201 200 201 204 204
263 264 262 265 271 275 282 280 261 241 237 249 263 263 259 262 271 282 291 296 301 306 308 310 314 320 325 330 333 333 333 332 332 329 325 323 327 333 337 341 344 344 344 349 354 356 1 3 3 6 12 16 18 20 20 22 28 33 37 42 48 49 49 49 52 59 65 67 69 77 89 100 113 131 151 166 172 176 182 190 193 191 191 194 200
262 259 257 261 265 271 276 268 246 233 237 250 260 256 255 259 267 279 289 294 298 303 304 305 311 318 321 325 329 331 332 333 333 332 329 325 323 328 334 339 343 344 345 348 353 1 9 13 13 14 17 19 22 25 25 24 29 33 34 37 45 50 53 55 56 57 62 67 69 68 71 78 84 90 98 109 120 131 144 159 170 174 178 187 194
260 257 256 258 263 269 270 257 243 240 247 255 254 249 252 259 266 277 288 293 295 298 301 304 311 317 318 321 324 326 327 327 328 330 332 328 322 321 329 337 341 344 347 348 351 3 16 20 20 20 22 22 24 28 29 26 28 30 29 32 40 45 48 54 58 60 62 66 69 69 67 70 76 78 77 79 84 94 103 111 117 119 124 142 161
261 259 260 263 268 271 271 263 254 248 248 251 251 249 251 258 267 276 285 291 293 295 299 305 313 317 318 319 321 322 322 323 325 328 331 331 326 320 322 332 341 346 350 352 355 6 19 23 23 22 21 21 25 31 33 30 28 28 29 34 40 41 42 47 52 59 65 67 69 70 70 71 72 70 70 71 72 77 84 89 94 96 97 102 110
270 270 270 269 269 272 275 272 262 253 246 244 248 250 248 253 268 276 276 279 284 289 296 305 312 316 317 317 320 323 325 325 324 327 333 338 334 324 320 329 339 343 347 353 3 13 18 21 24 24 21 19 21 30 36 36 35 36 39 44 45 42 43 46 47 51 58 65 69 71 71 71 71 68 68 73 80 85 88 89 92 95 96 98 102
276 275 272 268 268 271 274 272 264 257 249 242 243 246 245 251 268 272 264 261 272 282 292 302 307 312 314 315 319 324 326 325 322 324 334 342 339 328 322 323 328 334 343 355 9 18 19 20 22 22 23 22 21 28 38 42 44 44 44 45 47 48 48 51 53 52 54 59 66 70 70 69 69 66 64 67 74 84 92 95 96 95 94 97 101
278 278 275 273 272 272 272 273 270 263 258 256 257 256 251 248 250 247 240 240 251 263 280 294 303 310 314 315 319 322 324 326 325 325 332 342 343 335 322 310 310 327 349 5 16 21 23 24 27 26 25 26 27 33 41 41 43 46 44 41 46 50 49 49 56 62 61 58 60 68 71 69 65 63 61 61 65 71 79 89 97 96 93 97 102
284 284 283 283 281 275 271 275 281 275 269 267 260 249 241 236 232 227 227 238 245 249 273 295 311 320 317 316 319 321 323 328 332 333 338 342 342 337 329 327 344 3 16 26 30 31 28 28 32 35 35 34 34 38 42 40 40 46 49 46 46 48 48 46 43 42 46 49 52 67 77 75 74 75 72 69 69 70 72 77 86 93 94 97 98
294 295 296 295 293 286 274 273 280 277 260 245 236 230 225 224 226 227 228 231 226 237 300 307 319 321 310 303 307 314 322 330 334 338 342 342 339 341 355 20 31 34 39 41 40 39 35 32 32 35 39 43 44 44 47 49 51 53 55 54 51 47 44 41 30 20 23 33 39 48 58 71 89 86 79 80 93 96 94 86 82 88 98 108 109
297 307 310 307 306 302 281 266 259 241 219 213 216 215 210 209 216 225 221 200 178 45 350 329 319 314 302 295 301 311 322 329 330 333 341 348 356 17 38 49 52 51 50 48 44 42 41 38 34 32 33 38 42 44 47 50 52 52 53 53 54 53 50 45 38 31 32 35 38 34 13 345 2 20 354 294 126 114 135 141 128 121 139 159 182
292 303 307 307 304 285 253 236 225 213 205 203 202 201 203 209 216 220 213 203 237 343 343 339 331 320 309 305 315 329 336 337 337 342 358 17 33 46 55 59 60 60 58 53 47 43 41 39 36 32 30 31 31 32 33 34 34 35 37 38 40 42 41 36 32 29 31 36 39 38 29 10 3 5 354 320 298 288 197 165 150 155 187 214 228
297 301 303 304 282 229 213 212 209 203 197 194 191 192 204 216 213 211 227 283 315 328 337 339 336 336 340 344 356 10 9 2 1 6 15 25 34 43 51 57 59 58 56 50 44 40 37 37 38 37 34 32 30 27 25 22 19 19 19 19 21 21 20 19 19 17 20 27 29 30 35 44 40 12 347 335 335 347 109 132 144 175 210 226 229
291 291 294 291 250 222 214 216 212 199 188 187 185 181 190 200 204 230 282 309 318 327 338 344 348 2 16 22 32 32 21 16 27 24 12 9 19 31 38 41 48 55 52 45 41 36 30 32 39 42 40 39 39 37 33 27 22 19 15 12 12 13 12 12 12 10 9 12 15 15 18 24 31 33 27 23 29 119 163 159 167 197 224 233 232
277 275 285 280 258 241 224 212 201 180 165 164 152 133 149 205 257 294 307 319 326 333 343 352 6 26 41 44 39 27 21 54 73 34 360 359 22 25 18 21 44 56 46 32 27 27 26 30 38 40 37 36 38 37 35 32 30 29 26 22 17 13 11 9 8 6 3 1 2 2 1 360 0 358 351 344 200 203 212 211 209 217 229 235 239
36 358 57 93 115 128 129 135 136 126 119 115 104 93 310 290 296 295 304 320 325 336 356 8 24 53 72 61 26 8 19 70 52 7 341 360 31 8 349 360 62 51 30 15 12 16 21 25 28 28 25 22 20 20 19 19 19 22 27 31 30 27 24 21 18 15 13 11 9 5 1 357 355 349 337 324 304 262 244 243 243 245 247 248 249
84 94 106 111 114 117 122 123 117 104 85 51 10 343 319 303 289 271 248 240 268 6 42 48 67 93 93 75 40 24 25 28 11 360 354 353 347 335 327 71 50 28 14 7 8 10 10 9 8 9 8 5 4 5 7 8 7 7 11 17 21 22 24 25 26 26 26 24 21 18 14 9 4 357 348 342 333 312 287 272 262 258 260 261 259
84 96 112 117 114 113 119 118 96 32 3 349 334 320 307 295 281 253 193 185 231 245 87 84 91 95 89 92 93 72 41 18 24 42 19 354 342 346 64 40 22 7 354 348 350 355 356 354 355 358 357 356 358 2 4 5 5 3 3 4 4 4 6 8 10 13 16 16 16 18 19 18 15 10 2 356 349 340 330 323 312 295 281 273 265
84 90 101 106 104 107 124 116 347 341 338 332 320 307 294 269 176 127 128 141 160 121 105 99 96 94 90 90 92 82 57 29 14 355 324 317 324 340 346 349 346 335 327 327 332 339 343 343 346 348 348 349 352 355 356 358 359 357 356 356 355 353 352 353 353 354 354 354 355 360 4 7 10 12 12 7 1 355 350 345 336 325 314 305 280
66 59 60 64 56 317 310 324 329 331 330 322 304 284 225 138 123 116 117 118 113 107 107 110 111 108 99 94 94 95 92 92 273 272 274 281 293 302 309 316 316 313 314 319 326 330 333 335 337 340 339 340 342 343 344 347 349 348 348 348 345 343 342 342 342 343 342 340 340 342 343 344 343 343 347 353 356 355 357 356 351 344 340 342 339
341 325 320 312 307 311 320 326 327 328 328 319 266 214 160 129 122 120 118 115 116 117 118 121 124 123 118 115 117 122 136 185 255 290 298 301 301 298 295 296 297 300 305 311 316 320 324 328 332 336 339 341 344 344 344 345 346 347 347 346 345 344 343 340 338 337 337 336 336 334 333 333 331 327 324 324 324 325 328 331 335 337 335 339 346
298 296 297 299 303 306 307 308 312 311 300 182 148 147 144 134 125 121 119 121 125 128 129 131 133 135 138 145 156 184 225 244 267 283 289 292 292 291 291 291 292 296 301 305 310 318 325 330 337 344 350 357 2 4 4 3 359 357 355 354 356 357 356 353 350 346 342 340 340 337 334 334 334 334 334 331 325 322 321 319 318 319 317 315 320
296 292 290 287 286 286 282 272 246 178 149 135 127 128 129 125 120 119 123 127 128 128 129 127 124 122 125 131 138 164 264 287 292 289 287 286 284 283 288 294 297 302 307 313 322 332 337 343 352 358 3 9 11 11 12 14 14 11 8 7 6 4 2 359 358 357 354 353 351 347 345 344 343 344 347 346 342 340 337 329 323 319 313 309 307
292 284 278 270 260 237 193 167 155 143 133 126 123 123 121 118 117 118 122 124 125 125 125 122 118 115 115 111 101 95 75 342 337 336 324 295 279 292 331 348 356 360 357 355 358 357 356 358 360 360 2 7 8 7 8 10 10 11 13 11 8 6 4 1 358 357 358 359 360 357 354 353 352 351 351 351 350 351 351 348 344 337 327 317 313
Height
1542 1542 1541 1540 1539 1538 1538 1537 1536 1536 1535 1534 1533 1532 1531 1529 1528 1527 1526 1525 1524 1522 1521 1519 1518 1517 1516 1515 1514 1513 1512 1510 1509 1508 1506 1505 1504 1502 1501 1499 1497 1496 1495 1494 1494 1493 1491 1491 1490 1490 1491 1490 1489 1490 1492 1492 1494 1495 1496 1497 1498 1498 1499 1500 1499 1498 1500 1502 1503 1503 1504 1504 1505 1506 1508 1509 1511 1512 1513 1514 1514 1515 1515 1515 1516
1540 1540 1539 1538 1537 1537 1536 1536 1535 1535 1534 1533 1532 1531 1530 1529 1527 1526 1525 1524 1522 1521 1519 1518 1517 1516 1515 1514 1512 1511 1510 1509 1507 1506 1504 1503 1501 1499 1498 1496 1494 1493 1491 1489 1489 1488 1486 1485 1484 1485 1485 1485 1484 1485 1486 1487 1489 1490 1491 1491 1492 1493 1494 1495 1494 1494 1495 1497 1498 1499 1500 1501 1501 1502 1504 1506 1507 1508 1510 1511 1511 1512 1512 1513 1513
1538 1538 1537 1536 1536 1535 1535 1535 1534 1533 1532 1532 1531 1530 1529 1528 1527 1525 1524 1523 1521 1519 1518 1517 1515 1514 1513 1512 1511 1509 1508 1507 1506 1504 1503 1501 1499 1497 1495 1494 1491 1489 1487 1485 1484 1483 1482 1480 1478 1479 1479 1479 1479 1480 1481 1482 1483 1484 1485 1486 1487 1488 1489 1490 1490 1490 1491 1492 1494 1495 1496 1497 1497 1498 1500 1502 1504 1505 1506 1507 1508 1509 1509 1510 1510
1536 1536 1535 1535 1534 1534 1534 1533 1533 1532 1531 1531 1530 1529 1528 1527 1526 1524 1523 1521 1520 1518 1516 1515 1514 1513 1512 1511 1509 1508 1507 1505 1504 1503 1501 1499 1497 1495 1493 1490 1488 1486 1484 1481 1479 1478 1477 1475 1473 1473 1474 1473 1473 1474 1475 1476 1478 1478 1480 1481 1482 1483 1484 1485 1485 1486 1487 1488 1489 1491 1492 1493 1494 1495 1496 1498 1499 1501 1502 1503 1504 1505 1506 1507 1507
1535 1534 1534 1533 1533 1533 1532 1532 1532 1531 1530 1530 1529 1528 1527 1526 1525 1523 1521 1520 1519 1517 1515 1513 1512 1511 1510 1509 1508 1507 1505 1504 1503 1501 1499 1497 1494 1492 1490 1488 1485 1483 1480 1478 1475 1473 1471 1469 1467 1467 1467 1467 1468 1467 1468 1470 1471 1472 1474 1476 1477 1478 1479 1481 1481 1482 1483 1484 1485 1487 1488 1490 1490 1491 1492 1493 1495 1497 1498 1499 1500 1501 1502 1503 1504
1533 1532 1532 1531 1531 1531 1531 1531 1530 1529 1529 1528 1527 1527 1525 1524 1523 1521 1520 1518 1517 1516 1514 1512 1511 1509 1508 1507 1506 1505 1504 1503 1501 1499 1497 1494 1492 1490 1487 1485 1482 1479 1476 1473 1469 1467 1465 1463 1462 1461 1461 1461 1462 1462 1462 1463 1465 1466 1468 1470 1472 1473 1474 1475 1476 1477 1478 1479 1481 1482 1484 1485 1486 1487 1488 1489 1490 1492 1494 1495 1496 1497 1499 1500 1501
1531 1530 1530 1530 1529 1529 1529 1529 1529 1528 1527 1526 1526 1525 1524 1522 1521 1520 1518 1517 1515 1514 1512 1511 1509 1508 1507 1505 1504 1503 1502 1501 1499 1496 1494 1492 1490 1487 1485 1482 1479 1476 1472 1468 1464 1461 1459 1458 1457 1455 1455 1455 1455 1455 1457 1458 1459 1460 1462 1464 1466 1468 1469 1470 1472 1473 1474 1475 1476 1478 1480 1481 1482 1483 1484 1485 1487 1488 1490 1491 1492 1493 1495 1496 1497
1529 1529 1528 1528 1528 1528 1528 1528 1527 1526 1526 1524 1524 1523 1521 1521 1519 1518 1516 1515 1514 1512 1511 1509 1508 1506 1505 1504 1502 1501 1500 1498 1497 1494 1492 1490 1488 1485 1482 1479 1475 1472 1468 1463 1459 1455 1453 1452 1451 1449 1449 1449 1449 1450 1451 1452 1453 1455 1456 1458 1461 1462 1463 1465 1467 1468 1469 1470 1471 1473 1475 1476 1477 1479 1480 1482 1483 1483 1485 1487 1488 1490 1491 1493 1494
1528 1527 1527 1526 1526 1526 1526 1526 1525 1525 1524 1522 1522 1520 1520 1519 1517 1516 1515 1513 1512 1510 1509 1508 1506 1505 1503 1502 1500 1499 1498 1496 1495 1492 1490 1488 1486 1483 1480 1476 1473 1469 1464 1459 1454 1451 1448 1446 1445 1444 1443 1444 1444 1444 1446 1447 1449 1450 1451 1453 1456 1457 1458 1460 1461 1462 1464 1465 1466 1468 1470 1471 1472 1475 1476 1477 1478 1479 1481 1484 1485 1486 1488 1490 1490
1526 1526 1525 1525 1525 1525 1525 1524 1524 1523 1522 1521 1520 1518 1518 1517 1516 1514 1513 1511 1510 1508 1507 1506 1504 1503 1502 1500 1498 1497 1495 1494 1493 1491 1488 1486 1484 1481 1478 1474 1471 1466 1461 1455 1450 1447 1443 1441 1439 1438 1438 1438 1439 1439 1440 1442 1443 1444 1446 1448 1450 1451 1452 1454 1455 1457 1459 1459 1461 1463 1464 1465 1468 1470 1471 1472 1473 1475 1477 1479 1481 1483 1485 1486 1486
1524 1524 1524 1524 1524 1523 1523 1523 1522 1521 1520 1519 1518 1517 1516 1515 1514 1512 1511 1510 1508 1507 1505 1504 1503 1502 1500 1498 1497 1495 1493 1492 1490 1489 1486 1484 1482 1479 1476 1473 1469 1464 1458 1453 1447 1442 1438 1436 1434 1434 1434 1434 1434 1434 1435 1437 1438 1439 1440 1442 1444 1445 1446 1448 1449 1451 1453 1454 1456 1458 1459 1460 1463 1465 1467 1468 1469 1471 1473 1475 1477 1480 1481 1482 1483
1523 1522 1522 1522 1522 1522 1522 1521 1520 1519 1518 1517 1516 1515 1514 1513 1511 1510 1509 1508 1506 1505 1504 1503 1501 1500 1498 1497 1495 1493 1492 1490 1488 1486 1484 1482 1480 1477 1474 1471 1467 1462 1457 1451 1446 1441 1436 1433 1431 1431 1431 1431 1431 1431 1430 1431 1432 1433 1435 1436 1438 1439 1440 1442 1444 1446 1448 1449 1451 1452 1453 1456 1458 1460 1462 1464 1465 1466 1468 1471 1474 1476 1477 1478 1479
1521 1521 1521 1521 1520 1520 1520 1519 1519 1518 1517 1516 1515 1513 1512 1510 1509 1508 1507 1506 1504 1503 1502 1501 1500 1499 1497 1495 1493 1491 1490 1488 1486 1484 1482 1480 1478 1475 1473 1470 1466 1461 1456 1451 1446 1441 1436 1431 1429 1429 1429 1428 1428 1427 1427 1426 1427 1427 1429 1430 1431 1433 1434 1436 1438 1440 1442 1444 1445 1446 1448 1451 1452 1454 1457 1459 1460 1462 1465 1467 1469 1472 1473 1474 1476
1520 1519 1519 1519 1519 1519 1518 1518 1517 1516 1515 1514 1513 1512 1510 1509 1507 1506 1505 1504 1503 1502 1501 1499 1498 1497 1495 1493 1491 1489 1487 1486 1484 1482 1480 1479 1476 1474 1471 1468 1464 1460 1456 1452 1446 1441 1436 1432 1429 1428 1427 1425 1424 1423 1422 1422 1421 1422 1422 1423 1424 1425 1427 1429 1431 1433 1436 1438 1440 1441 1444 1446 1448 1450 1453 1455 1456 1459 1461 1463 1465 1468 1470 1471 1473
1518 1518 1518 1518 1517 1517 1517 1516 1515 1515 1514 1513 1511 1510 1509 1507 1506 1505 1503 1502 1501 1500 1499 1497 1496 1495 1493 1491 1489 1487 1485 1483 1482 1480 1478 1477 1474 1472 1469 1467 1463 1459 1456 1452 1448 1443 1439 1434 1431 1428 1425 1422 1420 1418 1416 1415 1415 1415 1415 1416 1418 1419 1420 1421 1423 1426 1428 1431 1434 1436 1439 1442 1444 1446 1449 1451 1453 1455 1458 1460 1462 1464 1466 1468 1469
1516 1516 1516 1516 1516 1515 1515 1514 1514 1513 1512 1511 1510 1509 1507 1506 1504 1503 1502 1501 1500 1498 1497 1496 1494 1493 1491 1489 1487 1485 1483 1482 1480 1478 1477 1475 1473 1470 1468 1465 1462 1459 1456 1452 1449 1445 1440 1435 1431 1428 1423 1420 1418 1414 1411 1409 1408 1408 1409 1410 1411 1412 1412 1414 1416 1419 1422 1424 1427 1431 1434 1437 1440 1442 1445 1448 1450 1452 1455 1457 1459 1461 1463 1464 1465
1514 1514 1514 1514 1514 1514 1513 1512 1512 1511 1510 1510 1508 1507 1506 1504 1503 1502 1500 1500 1498 1497 1495 1494 1492 1491 1489 1487 1485 1483 1481 1480 1478 1477 1475 1473 1471 1469 1466 1464 1461 1458 1455 1452 1449 1445 1440 1435 1431 1427 1423 1420 1416 1412 1408 1404 1402 1403 1404 1404 1405 1405 1405 1407 1409 1412 1415 1418 1421 1425 1429 1433 1435 1438 1441 1444 1446 1449 1451 1453 1455 1457 1459 1460 1461
1512 1512 1512 1512 1512 1511 1511 1510 1510 1509 1509 1508 1507 1506 1505 1503 1502 1500 1499 1498 1497 1495 1494 1492 1491 1489 1487 1486 1483 1481 1480 1478 1477 1475 1473 1472 1470 1468 1465 1462 1460 1457 1455 1452 1449 1445 1441 1437 1432 1428 1423 1419 1415 1411 1407 1402 1399 1399 1398 1398 1398 1398 1398 1400 1403 1405 1409 1412 1415 1419 1424 1428 1430 1433 1436 1439 1442 1445 1447 1448 1451 1453 1455 1456 1457
1510 1510 1510 1509 1509 1508 1508 1508 1508 1507 1507 1506 1505 1504 1503 1502 1501 1499 1498 1497 1495 1494 1492 1490 1489 1488 1486 1484 1482 1480 1478 1477 1475 1474 1472 1470 1468 1466 1464 1461 1458 1456 1453 1451 1448 1444 1441 1438 1433 1428 1424 1419 1415 1411 1406 1402 1398 1396 1394 1392 1392 1391 1392 1395 1397 1399 1401 1405 1409 1413 1417 1421 1425 1428 1431 1434 1437 1440 1442 1445 1448 1449 1450 1452 1454
1508 1508 1507 1506 1506 1506 1506 1505 1505 1505 1505 1504 1503 1503 1501 1500 1499 1498 1497 1495 1494 1493 1491 1489 1488 1486 1484 1482 1480 1478 1476 1475 1474 1472 1470 1469 1467 1465 1463 1461 1458 1455 1452 1450 1447 1444 1441 1437 1433 1429 1425 1420 1415 1410 1406 1402 1398 1394 1391 1388 1387 1387 1388 1390 1392 1393 1395 1399 1403 1407 1411 1416 1420 1423 1426 1429 1432 1435 1438 1440 1443 1445 1447 1449 1450
1506 1505 1505 1504 1504 1504 1503 1503 1503 1502 1502 1502 1501 1501 1500 1499 1498 1496 1495 1494 1493 1492 1490 1488 1486 1484 1482 1481 1479 1477 1475 1473 1472 1471 1469 1468 1466 1464 1462 1460 1457 1454 1452 1449 1446 1443 1440 1437 1433 1429 1425 1421 1416 1411 1407 1403 1398 1393 1389 1387 1385 1384 1384 1385 1386 1388 1391 1394 1399 1402 1406 1411 1415 1417 1421 1424 1427 1430 1433 1435 1438 1441 1443 1445 1446
1503 1503 1502 1502 1502 1501 1501 1501 1501 1500 1500 1500 1499 1499 1498 1497 1496 1495 1494 1493 1491 1490 1489 1487 1485 1483 1481 1479 1477 1476 1474 1472 1471 1469 1468 1466 1465 1462 1461 1459 1456 1454 1451 1448 1445 1442 1440 1437 1433 1430 1426 1421 1417 1413 1408 1404 1398 1393 1390 1387 1384 1383 1382 1382 1383 1385 1388 1392 1395 1398 1402 1406 1409 1413 1416 1419 1422 1426 1429 1431 1434 1437 1439 1440 1442
1500 1500 1499 1499 1499 1499 1499 1498 1498 1498 1498 1498 1497 1497 1496 1495 1494 1493 1492 1491 1490 1489 1487 1486 1484 1481 1479 1477 1476 1474 1473 1471 1469 1468 1467 1465 1463 1461 1459 1457 1456 1453 1451 1448 1445 1442 1440 1437 1433 1430 1426 1422 1418 1414 1410 1405 1400 1395 1393 1389 1385 1383 1381 1381 1382 1383 1385 1388 1391 1394 1397 1401 1405 1409 1412 1415 1419 1422 1425 1428 1430 1433 1435 1436 1439
1497 1497 1497 1496 1496 1496 1496 1496 1496 1496 1495 1495 1495 1495 1494 1493 1492 1492 1491 1490 1489 1487 1486 1484 1482 1480 1478 1476 1475 1473 1472 1470 1468 1467 1465 1464 1462 1460 1458 1456 1454 1452 1450 1448 1445 1442 1440 1437 1433 1430 1427 1423 1420 1416 1412 1408 1403 1399 1396 1393 1388 1384 1382 1381 1382 1382 1383 1385 1388 1390 1393 1397 1401 1405 1408 1412 1416 1419 1422 1425 1427 1429 1431 1433 1435
1494 1494 1494 1494 1494 1494 1493 1493 1493 1493 1493 1493 1493 1492 1492 1491 1491 1490 1489 1489 1487 1486 1484 1483 1481 1479 1477 1475 1473 1472 1470 1469 1467 1466 1464 1463 1461 1459 1457 1455 1453 1451 1449 1447 1444 1442 1439 1436 1434 1430 1427 1424 1421 1418 1414 1410 1406 1403 1400 1396 1392 1387 1384 1383 1382 1382 1383 1385 1387 1388 1390 1393 1398 1402 1406 1410 1414 1417 1419 1422 1423 1425 1427 1429 1431
1491 1491 1491 1491 1492 1491 1491 1491 1490 1490 1491 1491 1490 1490 1490 1489 1489 1488 1488 1487 1486 1484 1483 1481 1480 1478 1476 1474 1472 1470 1469 1468 1466 1464 1463 1462 1460 1458 1457 1455 1453 1451 1449 1446 1444 1441 1439 1436 1434 1431 1428 1424 1422 1419 1416 1413 1410 1407 1404 1400 1396 1392 1390 1387 1385 1384 1384 1385 1387 1387 1388 1392 1396 1400 1404 1408 1411 1414 1416 1418 1420 1422 1424 1425 1427
1488 1489 1489 1489 1489 1489 1488 1488 1488 1487 1489 1489 1489 1488 1487 1487 1487 1486 1485 1485 1484 1483 1482 1480 1478 1476 1474 1472 1471 1469 1468 1466 1465 1463 1462 1460 1459 1457 1455 1454 1452 1450 1448 1446 1444 1441 1439 1436 1434 1431 1429 1426 1423 1420 1418 1415 1413 1411 1408 1404 1400 1397 1395 1393 1391 1389 1388 1388 1388 1388 1389 1391 1395 1398 1402 1405 1407 1411 1414 1416 1418 1419 1421 1422 1424
1486 1486 1486 1486 1486 1486 1486 1486 1485 1485 1486 1487 1486 1486 1485 1485 1484 1484 1483 1483 1482 1481 1480 1478 1476 1474 1472 1471 1470 1468 1467 1465 1464 1462 1461 1459 1458 1456 1454 1453 1451 1449 1447 1446 1444 1441 1439 1437 1435 1433 1430 1427 1424 1422 1420 1418 1416 1414 1411 1408 1405 1402 1400 1399 1397 1395 1394 1393 1392 1391 1391 1393 1395 1397 1400 1403 1406 1409 1412 1414 1415 1417 1418 1420 1422
1483 1483 1483 1483 1483 1483 1483 1483 1483 1484 1484 1484 1484 1484 1483 1483 1482 1482 1481 1480 1480 1479 1478 1477 1475 1473 1471 1470 1468 1467 1466 1464 1462 1461 1459 1458 1457 1455 1453 1452 1450 1448 1447 1445 1443 1441 1439 1437 1435 1433 1431 1429 1426 1423 1421 1419 1418 1417 1414 1412 1410 1407 1405 1403 1402 1400 1399 1399 1399 1398 1397 1397 1398 1399 1401 1403 1406 1409 1411 1413 1415 1416 1416 1418 1420
1480 1480 1480 1481 1481 1481 1481 1481 1482 1482 1482 1482 1482 1482 1481 1480 1480 1479 1479 1478 1478 1477 1476 1475 1473 1472 1470 1469 1467 1466 1465 1463 1462 1460 1459 1457 1456 1454 1453 1451 1449 1448 1446 1445 1443 1442 1440 1438 1436 1434 1432 1430 1428 1425 1423 1421 1420 1419 1417 1416 1414 1412 1411 1409 1407 1406 1404 1403 1404 1404 1404 1404 1404 1405 1405 1406 1408 1409 1410 1412 1413 1414 1415 1416 1419
1478 1478 1478 1478 1479 1479 1479 1480 1480 1480 1480 1480 1480 1479 1478 1478 1477 1477 1476 1476 1475 1475 1474 1473 1472 1471 1469 1468 1466 1465 1464 1463 1461 1460 1458 1456 1455 1453 1452 1451 1449 1448 1446 1445 1443 1442 1440 1439 1437 1435 1433 1431 1429 1428 1426 1424 1423 1421 1420 1419 1418 1416 1415 1414 1412 1411 1410 1409 1409 1409 1410 1410 1410 1410 1410 1411 1412 1412 1412 1412 1413 1414 1415 1416 1418
1475 1475 1476 1476 1477 1477 1477 1477 1477 1477 1477 1477 1477 1476 1476 1475 1475 1475 1474 1474 1473 1473 1472 1472 1471 1469 1468 1467 1465 1464 1463 1462 1460 1459 1457 1456 1455 1453 1452 1451 1449 1448 1447 1445 1444 1442 1441 1439 1438 1436 1434 1433 1431 1429 1428 1427 1425 1424 1423 1421 1421 1420 1419 1418 1416 1416 1415 1414 1414 1414 1414 1414 1414 1414 1414 1415 1415 1415 1414 1414 1415 1416 1417 1418 1420
1473 1473 1474 1474 1474 1474 1474 1474 1474 1473 1473 1473 1473 1474 1474 1474 1474 1473 1472 1471 1471 1471 1470 1470 1469 1468 1467 1466 1464 1463 1462 1460 1459 1458 1457 1456 1454 1453 1452 1451 1449 1448 1447 1445 1444 1443 1441 1440 1439 1437 1435 1434 1432 1431 1430 1429 1428 1427 1425 1424 1423 1423 1422 1421 1420 1420 1419 1418 1418 1418 1417 1418 1417 1417 1417 1417 1417 1417 1417 1417 1418 1419 1420 1421 1423
1470 1471 1471 1471 1470 1470 1470 1470 1471 1470 1470 1469 1469 1470 1472 1472 1473 1473 1471 1470 1470 1470 1469 1469 1468 1467 1466 1465 1463 1462 1461 1460 1458 1457 1456 1455 1454 1453 1452 1451 1449 1448 1447 1445 1444 1443 1442 1441 1439 1438 1437 1435 1434 1433 1432 1430 1429 1429 1428 1427 1426 1425 1424 1424 1423 1423 1422 1422 1421 1421 1421 1420 1420 1419 1420 1420 1420 1420 1420 1421 1422 1423 1424 1425 1426
1468 1468 1467 1467 1467 1467 1466 1467 1467 1467 1467 1467 1468 1469 1469 1469 1470 1471 1470 1469 1469 1469 1468 1467 1467 1466 1465 1464 1462 1461 1460 1459 1458 1457 1455 1455 1454 1453 1452 1451 1449 1448 1447 1445 1444 1443 1442 1441 1440 1439 1438 1436 1435 1434 1433 1432 1431 1430 1429 1429 1428 1427 1427 1426 1425 1425 1425 1425 1425 1424 1423 1423 1423 1422 1422 1422 1423 1423 1423 1424 1425 1426 1427 1427 1428
1465 1465 1464 1464 1464 1463 1463 1463 1463 1464 1464 1464 1465 1467 1467 1466 1467 1468 1467 1467 1467 1467 1467 1466 1465 1464 1464 1463 1462 1460 1459 1458 1457 1456 1455 1454 1453 1452 1452 1450 1449 1448 1446 1445 1445 1444 1443 1442 1441 1440 1439 1438 1436 1435 1434 1433 1432 1431 1431 1430 1430 1429 1429 1428 1427 1427 1427 1427 1427 1426 1426 1425 1425 1425 1425 1425 1425 1426 1426 1427 1428 1428 1429 1430 1431
1462 1462 1461 1461 1461 1461 1460 1460 1461 1461 1462 1461 1462 1463 1464 1464 1464 1465 1465 1466 1466 1466 1466 1465 1464 1464 1463 1462 1461 1460 1459 1458 1457 1455 1454 1454 1453 1452 1451 1450 1449 1448 1447 1446 1445 1445 1444 1443 1442 1441 1440 1439 1438 1437 1436 1435 1434 1433 1432 1432 1431 1430 1430 1429 1429 1428 1428 1428 1428 1428 1427 1427 1426 1426 1427 1427 1427 1428 1428 1429 1429 1430 1431 1432 1433
1460 1460 1459 1459 1459 1459 1458 1458 1459 1459 1460 1460 1461 1461 1462 1462 1462 1463 1464 1464 1465 1465 1464 1464 1463 1463 1462 1461 1461 1459 1458 1457 1456 1455 1455 1453 1452 1451 1451 1450 1449 1449 1448 1447 1446 1446 1445 1444 1443 1442 1441 1440 1439 1439 1438 1437 1436 1435 1434 1433 1433 1432 1431 1431 1430 1429 1429 1429 1429 1429 1428 1428 1428 1428 1428 1428 1429 1429 1429 1430 1430 1431 1432 1433 1433
1458 1458 1458 1457 1457 1457 1457 1457 1457 1458 1458 1459 1459 1460 1461 1461 1461 1462 1462 1463 1463 1463 1463 1462 1462 1461 1461 1460 1459 1459 1458 1457 1456 1455 1454 1453 1452 1452 1451 1451 1450 1449 1448 1448 1447 1447 1446 1445 1444 1443 1442 1441 1441 1440 1439 1438 1437 1436 1435 1435 1434 1433 1432 1432 1431 1430 1430 1430 1430 1430 1429 1429 1429 1429 1429 1429 1430 1430 1430 1430 1431 1431 1432 1432 1433
1457 1457 1456 1455 1456 1456 1456 1456 1456 1456 1457 1458 1458 1459 1459 1460 1460 1461 1461 1461 1461 1461 1460 1460 1460 1459 1459 1459 1458 1457 1457 1456 1456 1455 1454 1453 1453 1452 1452 1451 1451 1450 1450 1449 1449 1448 1447 1446 1445 1444 1443 1442 1441 1440 1439 1439 1438 1437 1436 1436 1435 1434 1433 1433 1432 1432 1431 1431 1431 1431 1431 1430 1430 1430 1430 1430 1430 1430 1431 1431 1432 1432 1432 1432 1433
1456 1455 1455 1455 1455 1456 1456 1456 1456 1456 1457 1458 1458 1458 1459 1459 1460 1460 1460 1460 1459 1459 1458 1458 1458 1458 1457 1457 1457 1457 1457 1456 1456 1455 1455 1454 1454 1453 1453 1452 1452 1451 1451 1450 1450 1449 1449 1448 1446 1445 1444 1443 1442 1441 1440 1439 1438 1438 1437 1437 1436 1435 1435 1434 1434 1433 1433 1432 1432 1432 1432 1431 1431 1431 1431 1431 1431 1431 1431 1431 1431 1432 1432 1432 1432
1455 1455 1455 1455 1455 1456 1456 1456 1456 1457 1458 1458 1458 1458 1459 1459 1459 1459 1459 1458 1458 1457 1457 1457 1457 1457 1457 1457 1457 1457 1456 1456 1455 1455 1455 1455 1455 1454 1454 1453 1453 1452 1452 1451 1451 1450 1450 1449 1448 1447 1445 1444 1443 1442 1441 1440 1439 1438 1438 1437 1437 1436 1436 1435 1435 1434 1434 1434 1433 1433 1432 1432 1432 1432 1432 1432 1432 1431 1431 1431 1431 1431 1431 1432 1432
1454 1454 1455 1455 1456 1456 1456 1457 1457 1457 1458 1458 1458 1458 1458 1458 1458 1458 1458 1457 1457 1457 1456 1456 1456 1456 1457 1457 1457 1456 1456 1455 1455 1455 1455 1455 1455 1454 1454 1454 1453 1452 1452 1451 1451 1451 1450 1449 1448 1447 1446 1446 1444 1443 1442 1441 1440 1439 1439 1438 1437 1437 1437 1436 1436 1435 1435 1434 1434 1433 1433 1432 1432 1431 1431 1431 1431 1431 1431 1431 1431 1431 1431 1431 1431
1454 1454 1455 1455 1456 1456 1457 1457 1457 1457 1457 1457 1457 1457 1457 1457 1457 1457 1457 1457 1456 1456 1456 1455 1455 1455 1456 1456 1456 1456 1456 1455 1455 1455 1455 1455 1455 1454 1454 1454 1453 1453 1453 1452 1452 1451 1451 1450 1449 1448 1447 1446 1445 1444 1443 1442 1442 1441 1440 1439 1438 1438 1437 1437 1436 1436 1435 1435 1434 1433 1433 1432 1432 1431 1431 1431 1431 1431 1431 1430 1430 1430 1430 1430 1430
1454 1454 1455 1455 1456 1457 1457 1457 1457 1457 1457 1456 1456 1456 1455 1455 1455 1455 1455 1455 1455 1454 1454 1454 1455 1455 1455 1455 1455 1456 1456 1455 1455 1455 1455 1455 1455 1455 1454 1454 1453 1453 1453 1453 1453 1452 1451 1450 1449 1448 1448 1447 1446 1445 1444 1443 1443 1442 1441 1440 1439 1438 1438 1437 1437 1436 1436 1435 1434 1434 1433 1432 1432 1431 1431 1431 1431 1431 1430 1430 1430 1430 1430 1429 1429
1454 1455 1455 1455 1456 1456 1457 1457 1457 1457 1456 1456 1455 1455 1454 1454 1454 1454 1454 1454 1453 1453 1453 1454 1454 1455 1455 1455 1455 1455 1455 1455 1455 1455 1455 1455 1455 1455 1454 1454 1453 1453 1453 1452 1452 1451 1451 1450 1450 1449 1448 1447 1446 1446 1445 1444 1443 1442 1441 1440 1440 1439 1438 1437 1437 1436 1436 1435 1435 1434 1433 1433 1432 1432 1431 1431 1431 1431 1430 1430 1430 1430 1430 1430 1429
1455 1455 1455 1455 1456 1456 1456 1456 1456 1456 1455 1455 1454 1454 1453 1453 1453 1453 1453 1453 1453 1453 1453 1454 1454 1454 1454 1455 1455 1455 1455 1455 1455 1455 1455 1454 1454 1454 1454 1453 1453 1452 1452 1451 1451 1451 1450 1450 1449 1449 1448 1447 1447 1446 1445 1444 1443 1442 1441 1440 1440 1439 1438 1437 1437 1436 1435 1434 1434 1433 1433 1433 1432 1432 1432 1431 1431 1431 1430 1430 1430 1429 1429 1429 1429
1455 1455 1455 1455 1455 1455 1455 1455 1455 1454 1454 1453 1453 1453 1452 1452 1452 1452 1452 1452 1453 1453 1453 1454 1454 1454 1454 1455 1455 1455 1455 1455 1455 1455 1454 1454 1453 1453 1453 1452 1452 1452 1451 1450 1450 1450 1449 1449 1449 1448 1448 1447 1446 1446 1445 1443 1443 1442 1441 1440 1439 1438 1438 1437 1436 1435 1435 1434 1433 1433 1432 1432 1432 1431 1431 1431 1431 1430 1430 1430 1429 1429 1429 1428 1428
1455 1455 1455 1454 1454 1454 1454 1454 1453 1453 1453 1452 1452 1452 1452 1452 1452 1452 1452 1453 1453 1453 1453 1454 1454 1454 1454 1454 1454 1454 1454 1454 1454 1454 1454 1453 1453 1452 1452 1451 1451 1450 1450 1449 1449 1449 1448 1448 1448 1447 1447 1446 1446 1445 1444 1444 1443 1442 1441 1440 1439 1438 1437 1437 1436 1435 1435 1434 1433 1433 1432 1431 1431 1430 1430 1430 1430 1429 1429 1429 1428 1428 1428 1428 1427
1454 1454 1454 1454 1453 1453 1453 1453 1452 1452 1452 1452 1452 1452 1452 1452 1452 1452 1452 1453 1453 1453 1453 1454 1454 1454 1454 1454 1454 1454 1454 1454 1454 1454 1453 1453 1452 1451 1451 1450 1450 1449 1449 1449 1448 1448 1448 1447 1447 1446 1446 1446 1445 1444 1444 1443 1442 1442 1441 1440 1439 1438 1437 1437 1436 1435 1435 1434 1433 1433 1432 1431 1430 1430 1429 1429 1429 1428 1428 1428 1427 1427 1427 1427 1427
1453 1453 1453 1452 1452 1452 1452 1452 1452 1452 1452 1452 1452 1452 1452 1452 1452 1452 1452 1453 1453 1453 1453 1453 1453 1454 1454 1454 1454 1453 1453 1453 1453 1452 1452 1452 1451 1450 1450 1449 1449 1449 1448 1448 1448 1448 1447 1447 1446 1446 1445 1445 1444 1444 1443 1442 1442 1441 1440 1440 1439 1438 1438 1437 1436 1435 1434 1434 1433 1432 1432 1431 1430 1430 1429 1429 1428 1428 1427 1427 1426 1426 1426 1425 1425